Location: Gniazdowice
(50.2124°N, 20.2673°E)
Time: 00:00:11
(UTC+00:00)

Cosmos 2237 - Pass Details

Date: 23 May 2024
Orbit: 844 x 857 km, 70.8° (Epoch: 18 June)

Event Time Altitude Azimuth Distance (km) Brightness Sun altitude
Rises 00:11:32 0° 329° (NNW) 3,441 7.9 -16.0°
Reaches altitude 10° 00:13:59 10° 329° (NNW) 2,501 7.1 -15.9°
Maximum altitude 00:19:45 81° 244° (WSW) 874 4.2 -15.5°
Drops below altitude 10° 00:25:28 10° 157° (SSE) 2,484 6.3 -15.1°
Enters shadow 00:25:54 - 157° (SSE) 2,650 6.4 -15.1°
